Location: Normandy Village
(37.8755°N, 122.2655°W)
Time: 15:02:20
(UTC+00:00)

Meteor 2-4 Rocket - Pass Details

Date: 22 September 2019
Orbit: 799 x 908 km, 81.2° (Epoch: 17 October)

Event Time Altitude Azimuth Distance (km) Brightness Sun altitude
Rises 13:24:50 0° 183° (S) 3,313 6.7 -7.1°
Reaches altitude 10° 13:27:13 10° 182° (S) 2,377 6.0 -6.6°
Maximum altitude 13:32:33 78° 97° (E) 821 3.9 -5.6°
Drops below altitude 10° 13:37:54 10° 12° (NNE) 2,382 6.3 -4.5°
Sets 13:40:18 0° 11° (N) 3,321 7.0 -4.1°
